STARLINK-11326, 62010

Orbit data source: Space-Track

STARLINK-11326, 62010 is a payload satellite owned by SpaceX/Seattle (US) in LEO that was launched on Mon, 18 Nov 2024 UTC via an FALCON 9 launch vehicle from the Air Force Western Test Range (AFWTR). Payload-class satellites include a variety of spacecraft equipped with specific instruments for various scientific and technological missions. These include communications satellites like Starlink; space stations such as the ISS; scientific satellites like the Hubble; Earth observation satellites from companies like Planet Labs, Umbra, and HawkEye 360; GPS; miniature CubeSats for education and research; and military/defense satellites.

Loading next visibility...
Identifier
62010, 2024-213C
Orbit
LEO
Last TLE update
15 hours ago
Origin
Manufacturer
SpaceX/Seattle
Mission
Operational Commercial Communications
Bus & Motor
STARLINK V2M, Unknown motor
Mass
730 kg wet, ~700 kg dry
Launch date (UTC)
2024-11-18 (8 months ago)
Launch vehicle
FALCON 9
Launch site
Air Force Western Test Range (AFWTR)
Object type
Payload
Rocket body
Debris
Shape & HBR
Box + 2 Pan, 29 m
Radar Cross Section
36.964 m², Large (>1 m²)

Expand to show TLE details & history

TLE from 15 hours ago
0 STARLINK-11326
1 62010U 24213C   25186.26571558  .00217947  00000-0  17533-2 0  9993
2 62010  53.1561 181.0290 0001046  58.2585 301.8535 15.69760177 36055
Epoch: 2025-07-05T06:22Z
TLE epoch observation values (Epoch: 2025-07-05T06:22:37.826Z)
Latitude
0.00002°
Longitude
161.86517°
Altitude
360.126 km
Speed
7.695 km/s
True Right ascension
12h 04m 06s
True Declination
0° 00' 00"
Sunlit
Object was in daylight at epoch
Visualization orbit readout
Latitude
-44.88312°
Longitude
110.87126°
Altitude
374.326 km
Speed
7.685 km/s
Apparent Right ascension
02h 30m 54s
Apparent Declination
-84° 32' 35"
Sunlit
Object is in daylight
Visualization observer readout
Local Sidereal Time
09:19:41
Azimuth
187.059° SSW
Elevation
-40.857°
Doppler factor
1
Orbital elements
Apogee altitude
360.549 km
Perigee altitude
359.14 km
Semi-major axis
6,737.981 km
Eccentricity
0.0001
Inclination
53.1561°
RAAN
181.029°
Arg. of periapsis
58.2585°
True anomaly
Unknown
Mean anomaly
301.8535°
Eccentric anomaly
Unknown
Mean motion
3.92418 °/min
Orbital period
91.74 mins
BSTAR
0.0017533
Loading maneuver chart data...
Loading SW <> Apogee altitude chart data...
Loading historical data...
Loading historical data...
Loading historical data...
Loading historical data...
Loading historical data...
Loading historical data...
Loading historical data...

STARLINK-11326 Visibility forecast

Observer location: undefined°, undefined°

Span
Click to sort rows by Start time (UTC) header in descending order
Start Az.
Max El. time (UTC)
Max El. Az.
Max El.
End time (UTC)
End Az.
5 mins2025-07-06 02:25:40.441Z231.433° WSW2025-07-06 02:27:40.441Z244.648° WSW43.17°2025-07-06 02:30:40.441Z48.812° ENE
4 mins2025-07-06 08:50:40.441Z322.668° NNW2025-07-06 08:52:40.441Z49.172° ENE39.687°2025-07-06 08:54:40.441Z114.06° SE
|